[[{"header":{"parameterUnit":"m.s-1","parameterCategory":1,"la1":30.2991,"la2":30.254,"lo1":-89.0895,"lo2":-89.0444,"dy":0.0017,"dx":0.0017,"nx":28,"ny":28,"refTime":"2025-08-04T21:00:00:Z","depth":0,"parameterNumber":2,"parameterNumberName":"U-component_of_WINDS"},"data":[0,0,0,0,0,0,0,0,0,0,0,0,0,0,0,0,0,0,0,0,0,0,0,0,0,0,0,0,0,0,0,0,0,0,0,0,0,0,0,0,0,0,0,0,0,0,0,0,0,0,0,0,0,0,0,0,0,0,-2.6417,-2.6417,0,-2.6404,-2.6404,-2.6404,-2.6312,-2.631,-2.6308,-2.6306,-2.6295,-2.6297,-2.6299,0,0,0,0,0,0,0,0,0,0,0,0,0,-2.6365,-2.6366,-2.6417,-2.6417,-2.6417,-2.6404,-2.6404,-2.6404,-2.6313,-2.631,-2.6307,-2.6305,-2.6294,-2.6297,-2.6299,0,0,0,0,0,0,0,0,0,0,0,0,0,-2.6373,-2.6367,-2.6417,-2.637,-2.6365,-2.6404,-2.6404,-2.6404,-2.6313,-2.631,-2.6306,-2.6303,-2.6294,-2.6296,-2.6299,-2.6384,0,0,-2.6307,-2.6309,0,0,0,0,0,0,0,0,-2.6373,-2.6375,-2.6377,-2.6373,-2.6368,-2.6356,-2.6381,-2.6397,-2.6314,-2.6333,-2.6306,-2.6302,-2.6318,-2.6319,-2.6324,-2.6383,-2.6383,-2.6308,-2.6309,-2.631,-2.6311,0,0,0,0,0,0,0,-2.6372,-2.6375,-2.6412,-2.6377,-2.6372,-2.635,-2.6347,-2.6384,-2.6345,-2.6331,-2.6324,-2.6324,-2.6315,-2.6322,-2.6323,-2.6382,-2.6308,-2.631,-2.6312,-2.6313,-2.6507,-2.6511,0,0,0,0,0,0,-2.6378,-2.6375,-2.6413,-2.6412,-2.6362,-2.6353,-2.635,-2.6364,-2.6344,-2.6338,-2.6327,-2.632,-2.6319,-2.632,-2.6322,-2.6417,-2.631,-2.6313,-2.6315,-2.6504,-2.6508,-2.6512,0,0,0,0,0,0,-2.6377,-2.6382,-2.6413,-2.6392,-2.6394,-2.6358,-2.6373,-2.6365,-2.6371,-2.6341,-2.6334,-2.634,-2.6316,-2.6318,-2.6368,-2.6416,-2.6314,-2.6317,-2.65,-2.6505,-2.651,-2.661,0,0,0,0,0,0,-2.6376,-2.6383,-2.6414,-2.6393,-2.6395,-2.6459,-2.6376,-2.6367,-2.6376,-2.6366,-2.6352,-2.6346,-2.6313,-2.6365,-2.6371,-2.6418,-2.6319,-2.6495,-2.6502,-2.6508,-2.6602,-2.6618,-2.6632,0,0,0,0,0,-2.6375,-2.6444,-2.6416,-2.6421,-2.6434,-2.6462,-2.6463,-2.6424,-2.638,-2.6411,-2.6392,-2.6346,-2.641,-2.637,-2.6377,-2.6425,-2.6492,-2.65,-2.6508,-2.6596,-2.6615,-2.6631,0,0,0,0,0,0,-2.6474,-2.6441,-2.6409,-2.6474,-2.6471,-2.6447,-2.6485,-2.6446,-2.6457,-2.6448,-2.6399,-2.6396,-2.6453,-2.6444,-2.6401,-2.6505,-2.6443,-2.6453,-2.6508,-2.6526,-2.654,-2.6541,-2.6321,0,0,0,0,0,-2.6503,-2.6527,-2.6498,-2.6558,-2.6558,-2.6522,-2.6533,-2.6502,-2.6498,-2.6497,-2.6481,-2.6479,-2.6498,-2.6512,-2.6528,-2.6601,-2.6595,-2.6638,-2.6652,-2.6664,-2.6673,-2.6708,-2.6726,-2.6538,-2.6538,-2.6538,0,0,-2.6563,-2.6548,-2.6568,-2.6577,-2.6571,-2.6598,-2.6522,-2.6554,-2.6573,-2.6502,-2.6546,-2.6535,-2.653,-2.6591,-2.6617,-2.6585,-2.6724,-2.6675,-2.6685,-2.6686,-2.6718,-2.6736,-2.6752,-2.6543,-2.6542,-2.6541,0,0,-2.6687,-2.6679,-2.6727,-2.6722,-2.6714,-2.6689,-2.6701,-2.6681,-2.667,-2.6714,-2.6661,-2.6683,-2.6718,-2.6716,-2.6719,-2.684,-2.6798,-2.6847,-2.6923,-2.6958,-2.6973,-2.6986,-2.7027,-2.7042,-2.6856,-2.6856,-2.6856,0,-2.6764,-2.6801,-2.6757,-2.6791,-2.6796,-2.6732,-2.6779,-2.6777,-2.6776,-2.6781,-2.6745,-2.6785,-2.6778,-2.6836,-2.6865,-2.6871,-2.6882,-2.6848,-2.6974,-2.6987,-2.6998,-2.7037,-2.7052,-2.6862,-2.6861,-2.686,-2.686,0,-2.6895,-2.6922,-2.6961,-2.6959,-2.6969,-2.701,-2.6971,-2.6987,-2.6955,-2.6935,-2.6979,-2.6967,-2.6979,-2.6991,-2.6961,-2.7044,-2.7025,-2.6983,-2.692,-2.7023,-2.7058,-2.7072,-2.687,-2.6868,-2.6866,-2.6865,0,0,-2.7081,-2.7051,-2.7067,-2.7063,-2.7049,-2.7069,-2.7107,-2.7117,-2.713,-2.7131,-2.716,-2.719,-2.7151,-2.7155,-2.7124,-2.7155,-2.7249,-2.7109,-2.7108,-2.7133,-2.7337,-2.7367,-2.7385,-2.7221,-2.7224,-2.7226,-2.7336,0,-2.7198,-2.7259,-2.7219,-2.7287,-2.731,-2.7249,-2.7281,-2.7276,-2.7257,-2.7274,-2.7254,-2.7275,-2.7222,-2.7224,-2.7252,-2.7232,-2.7289,-2.7223,-2.7248,-2.7249,-2.7249,-2.7403,-2.7436,-2.754,-2.735,-2.7353,-2.7354,0,-2.7342,-2.7347,-2.7417,-2.7395,-2.7403,-2.7433,-2.7437,-2.7455,-2.7447,-2.7431,-2.7435,-2.7396,-2.7431,-2.737,-2.7417,-2.7373,-2.7381,-2.7372,-2.7375,-2.7375,-2.7307,-2.7405,-2.7573,-2.7588,-2.7376,-2.7374,-2.7373,0,-2.7468,-2.7492,-2.7536,-2.7536,-2.7512,-2.7534,-2.7526,-2.7514,-2.7522,-2.7526,-2.753,-2.754,-2.7545,-2.7553,-2.7517,-2.7476,-2.7568,-2.7504,-2.7554,-2.7555,-2.7575,-2.7574,-2.7745,-2.7584,-2.7584,-2.7584,-2.7584,0,-2.7602,-2.7646,-2.7591,-2.7619,-2.7666,-2.762,-2.7669,-2.7654,-2.7644,-2.7667,-2.7615,-2.7638,-2.759,-2.7608,-2.758,-2.7622,-2.7625,-2.7613,-2.7604,-2.7616,-2.7617,-2.7619,-2.761,-2.7588,-2.7587,-2.7586,-2.7586,0,-2.7749,-2.7715,-2.7758,-2.7732,-2.7726,-2.7762,-2.7739,-2.7763,-2.774,-2.7769,-2.7774,-2.7738,-2.7756,-2.7721,-2.7736,-2.7717,-2.7775,-2.7757,-2.7777,-2.7771,-2.7822,-2.7816,-2.7998,-2.8018,-2.7847,-2.7849,-2.785,0,-2.7836,-2.7868,-2.7844,-2.7855,-2.7848,-2.7867,-2.7873,-2.783,-2.7839,-2.7831,-2.7855,-2.7869,-2.7876,-2.7908,-2.7884,-2.7894,-2.7873,-2.7936,-2.7875,-2.7884,-2.7871,-2.7869,-2.7871,-2.7949,-2.7951,-2.7952,-2.7954,0,-2.7992,-2.7973,-2.7984,-2.7988,-2.7997,-2.7999,-2.7998,-2.801,-2.7963,-2.7976,-2.7992,-2.7998,-2.8011,-2.8024,-2.8028,-2.8019,-2.7979,-2.7974,-2.7985,-2.7996,-2.8005,-2.7998,-2.7809,-2.7969,-2.7968,-2.7967,-2.7966,-2.7965,-2.811,-2.8135,-2.8121,-2.8134,-2.8128,-2.8127,-2.8147,-2.8126,-2.8138,-2.8144,-2.8118,-2.814,-2.8129,-2.813,-2.8125,-2.8142,-2.8113,-2.8131,-2.8135,-2.814,-2.8146,-2.8005,-2.8143,-2.8142,-2.8142,-2.8141,-2.8141,0,-2.8261,-2.8249,-2.8261,-2.8259,-2.827,-2.8229,-2.8225,-2.8236,-2.8256,-2.8249,-2.8257,-2.8275,-2.8287,-2.8264,-2.8272,-2.8289,-2.8271,-2.8293,-2.829,-2.8288,-2.8173,-2.816,-2.8307,-2.8307,-2.8307,-2.8307,-2.8307,-2.8307,-2.8341,-2.8379,-2.8358,-2.8393,-2.838,-2.84,-2.8401,-2.8399,-2.8393,-2.8415,-2.8424,-2.8408,-2.8394,-2.84,-2.8409,-2.8402,-2.8406,-2.8434,-2.842,-2.8313,-2.8296,-2.8281,-2.8269,-2.8436,-2.8436,-2.8533,-2.8534,-2.8535]},{"header":{"parameterUnit":"m.s-1","parameterCategory":1,"la1":30.2991,"la2":30.254,"lo1":-89.0895,"lo2":-89.0444,"dy":0.0017,"dx":0.0017,"nx":28,"ny":28,"refTime":"2025-08-04T21:00:00:Z","depth":0,"parameterNumber":3,"parameterNumberName":"V-component_of_WINDS"},"data":[0,0,0,0,0,0,0,0,0,0,0,0,0,0,0,0,0,0,0,0,0,0,0,0,0,0,0,0,0,0,0,0,0,0,0,0,0,0,0,0,0,0,0,0,0,0,0,0,0,0,0,0,0,0,0,0,0,0,-1.5766,-1.5764,0,-1.5638,-1.5637,-1.5635,-1.5587,-1.5588,-1.5588,-1.5588,-1.5452,-1.5448,-1.5444,0,0,0,0,0,0,0,0,0,0,0,0,0,-1.5957,-1.5954,-1.5766,-1.5764,-1.5763,-1.5638,-1.5637,-1.5635,-1.5587,-1.5588,-1.5588,-1.5589,-1.5454,-1.5449,-1.5444,0,0,0,0,0,0,0,0,0,0,0,0,0,-1.5856,-1.5953,-1.5766,-1.5724,-1.5719,-1.5639,-1.5637,-1.5634,-1.5587,-1.5588,-1.5588,-1.5589,-1.5455,-1.5449,-1.5443,-1.5394,0,0,-1.5425,-1.5423,0,0,0,0,0,0,0,0,-1.5862,-1.5849,-1.5732,-1.5727,-1.5721,-1.5629,-1.5654,-1.5554,-1.5587,-1.5637,-1.5588,-1.5589,-1.551,-1.55,-1.5474,-1.5388,-1.5382,-1.5425,-1.5421,-1.5418,-1.5417,0,0,0,0,0,0,0,-1.5869,-1.5854,-1.5715,-1.573,-1.5723,-1.5708,-1.5694,-1.5635,-1.5572,-1.5633,-1.5629,-1.5615,-1.5507,-1.548,-1.5471,-1.538,-1.5425,-1.5419,-1.5416,-1.5413,-1.5237,-1.5236,0,0,0,0,0,0,-1.5884,-1.5861,-1.5719,-1.5711,-1.5795,-1.5704,-1.5689,-1.5658,-1.5572,-1.556,-1.5614,-1.5613,-1.549,-1.5478,-1.5466,-1.5396,-1.5418,-1.5413,-1.5409,-1.5238,-1.5236,-1.5235,0,0,0,0,0,0,-1.5889,-1.5872,-1.5724,-1.5785,-1.5765,-1.57,-1.5666,-1.5655,-1.5628,-1.5558,-1.5546,-1.5599,-1.549,-1.5474,-1.5411,-1.5391,-1.541,-1.5405,-1.5239,-1.5237,-1.5236,-1.5261,0,0,0,0,0,0,-1.5894,-1.5874,-1.5858,-1.5785,-1.5762,-1.5675,-1.5665,-1.5652,-1.5619,-1.5616,-1.5541,-1.5529,-1.549,-1.542,-1.5405,-1.5383,-1.54,-1.524,-1.5238,-1.5236,-1.5262,-1.526,-1.526,0,0,0,0,0,-1.5901,-1.5871,-1.5857,-1.5841,-1.5741,-1.5674,-1.566,-1.5618,-1.5618,-1.5598,-1.5551,-1.5531,-1.5396,-1.5414,-1.5396,-1.5373,-1.5241,-1.5239,-1.5236,-1.5262,-1.5261,-1.526,0,0,0,0,0,0,-1.5943,-1.5861,-1.5845,-1.5791,-1.5739,-1.5666,-1.5641,-1.5619,-1.5566,-1.5565,-1.5512,-1.5495,-1.5434,-1.5397,-1.5418,-1.5316,-1.5317,-1.5311,-1.5342,-1.534,-1.5339,-1.5348,-1.5395,0,0,0,0,0,-1.5946,-1.5902,-1.5831,-1.5789,-1.5765,-1.5707,-1.5677,-1.5647,-1.5592,-1.557,-1.5519,-1.5464,-1.5407,-1.5372,-1.5318,-1.5256,-1.5235,-1.5231,-1.523,-1.5229,-1.5223,-1.5179,-1.5175,-1.5227,-1.5227,-1.5227,0,0,-1.5952,-1.5901,-1.5877,-1.5796,-1.5754,-1.5704,-1.5689,-1.564,-1.5601,-1.5562,-1.5497,-1.5458,-1.5391,-1.5327,-1.5295,-1.5294,-1.5204,-1.5226,-1.5226,-1.522,-1.5176,-1.5171,-1.5167,-1.5225,-1.5226,-1.5226,0,0,-1.5936,-1.5896,-1.5853,-1.5809,-1.5744,-1.5705,-1.5694,-1.5623,-1.5595,-1.5529,-1.5496,-1.5447,-1.5355,-1.5307,-1.527,-1.5228,-1.5204,-1.5211,-1.5205,-1.5163,-1.5159,-1.5155,-1.5133,-1.5127,-1.5207,-1.5207,-1.5207,0,-1.5951,-1.5878,-1.5834,-1.5784,-1.5747,-1.5708,-1.5661,-1.562,-1.554,-1.5513,-1.5513,-1.539,-1.5343,-1.5262,-1.5251,-1.5225,-1.5206,-1.5219,-1.5163,-1.5159,-1.5154,-1.5133,-1.5126,-1.5208,-1.5208,-1.5207,-1.5207,0,-1.5896,-1.5845,-1.5818,-1.5741,-1.57,-1.5653,-1.5596,-1.556,-1.5532,-1.5491,-1.5421,-1.5363,-1.5292,-1.5271,-1.5245,-1.5184,-1.5184,-1.5175,-1.5174,-1.5151,-1.5129,-1.5121,-1.5209,-1.5209,-1.5208,-1.5208,0,0,-1.5907,-1.5801,-1.5791,-1.5752,-1.5674,-1.5632,-1.5578,-1.551,-1.5476,-1.542,-1.537,-1.5289,-1.5277,-1.5235,-1.5202,-1.5166,-1.5127,-1.5159,-1.5157,-1.515,-1.5047,-1.5052,-1.5044,-1.5111,-1.511,-1.5108,-1.505,0,-1.5877,-1.5783,-1.5738,-1.5662,-1.561,-1.5569,-1.5521,-1.5465,-1.5423,-1.537,-1.5323,-1.5264,-1.5257,-1.523,-1.5192,-1.514,-1.5105,-1.5144,-1.5058,-1.5056,-1.5073,-1.5034,-1.504,-1.4989,-1.5043,-1.5041,-1.504,0,-1.5832,-1.5774,-1.5693,-1.5613,-1.559,-1.5548,-1.5477,-1.5429,-1.5361,-1.5332,-1.5282,-1.5249,-1.5185,-1.5189,-1.5096,-1.5124,-1.5085,-1.5054,-1.505,-1.5038,-1.5045,-1.5015,-1.4973,-1.4963,-1.5028,-1.5029,-1.503,0,-1.5841,-1.5744,-1.568,-1.5648,-1.5556,-1.5526,-1.5485,-1.5418,-1.5377,-1.5313,-1.5284,-1.5214,-1.5175,-1.5119,-1.5064,-1.5074,-1.4974,-1.4976,-1.4943,-1.4944,-1.4923,-1.4924,-1.4868,-1.4905,-1.4905,-1.4905,-1.4906,0,-1.5812,-1.5762,-1.5682,-1.5643,-1.5583,-1.5528,-1.5469,-1.5425,-1.5364,-1.5311,-1.5271,-1.5222,-1.5155,-1.5095,-1.5052,-1.4976,-1.4961,-1.4931,-1.492,-1.4933,-1.4936,-1.4905,-1.4905,-1.4903,-1.4904,-1.4904,-1.4905,0,-1.5813,-1.5758,-1.5684,-1.56,-1.5578,-1.5537,-1.5462,-1.5419,-1.5373,-1.5306,-1.5287,-1.5214,-1.514,-1.5081,-1.4985,-1.4955,-1.4875,-1.4864,-1.4898,-1.4891,-1.4859,-1.4861,-1.4778,-1.4761,-1.4814,-1.4814,-1.4814,0,-1.5796,-1.5756,-1.5666,-1.5628,-1.5588,-1.5528,-1.5484,-1.5426,-1.5381,-1.5296,-1.5261,-1.5185,-1.5121,-1.5003,-1.4939,-1.4863,-1.4847,-1.4823,-1.4835,-1.4847,-1.4839,-1.484,-1.4832,-1.4821,-1.4821,-1.4821,-1.4821,0,-1.5771,-1.5743,-1.5684,-1.5611,-1.556,-1.55,-1.5439,-1.5409,-1.5339,-1.5289,-1.5213,-1.5163,-1.5062,-1.4984,-1.4899,-1.4852,-1.4821,-1.4817,-1.4804,-1.4815,-1.4834,-1.4816,-1.4889,-1.4819,-1.4819,-1.4819,-1.4819,-1.4819,-1.5759,-1.5718,-1.5647,-1.5578,-1.5525,-1.5467,-1.542,-1.5366,-1.5302,-1.5216,-1.5185,-1.5105,-1.5029,-1.4912,-1.4864,-1.4796,-1.4793,-1.4777,-1.4772,-1.4767,-1.4765,-1.4847,-1.4781,-1.4781,-1.4781,-1.4781,-1.4781,0,-1.5727,-1.5677,-1.5615,-1.5528,-1.5472,-1.545,-1.5378,-1.5332,-1.5262,-1.5195,-1.513,-1.5038,-1.4959,-1.4886,-1.4803,-1.4762,-1.4745,-1.4741,-1.4742,-1.4729,-1.4776,-1.4793,-1.4756,-1.4756,-1.4756,-1.4756,-1.4756,-1.4756,-1.5704,-1.5631,-1.5594,-1.5491,-1.5441,-1.5363,-1.5322,-1.5265,-1.521,-1.5109,-1.5044,-1.4997,-1.4924,-1.4833,-1.4757,-1.4737,-1.4705,-1.4704,-1.468,-1.4724,-1.4727,-1.4731,-1.4745,-1.4699,-1.4699,-1.4638,-1.4637,-1.4637]}]]